Simultaneous Nadir Overpasses (SNOs) Predictions

Prediction of SNOs between LANDSAT-8 and TERRA Satellite Orbit:

Table of predicted SNOs for the next 14.0 days since TLE Epoch: 12/28/2024
Index Date (LANDSAT-8) Time (LANDSAT-8) Lat,Lon (LANDSAT-8) SZA (LANDSAT-8 ) Date (TERRA) Time (TERRA) Lat,Lon (TERRA) SZA (TERRA ) Distance(km) Time Diff (sec)
1 01/09/2025 20:22:37 81.83, -60.11 108.16 01/09/2025 20:23:49 81.83, -60.26 108.18 2.47 72
2 01/09/2025 21:12:04 -81.83, 107.42 71.87 01/09/2025 21:13:09 -81.83, 107.51 71.82 1.54 65
3 01/09/2025 22:01:29 81.82, -84.43 108.19 01/09/2025 22:02:28 81.82, -84.57 108.21 2.21 59
4 01/09/2025 22:50:56 -81.83, 83.09 71.83 01/09/2025 22:51:48 -81.82, 83.20 71.79 1.81 52
5 01/09/2025 23:40:22 81.82,-109.19 108.18 01/09/2025 23:41:08 81.82,-109.31 108.19 1.92 46
6 01/10/2025 00:29:49 -81.83, 58.34 71.85 01/10/2025 00:30:28 -81.82, 58.46 71.81 2.04 39
7 01/10/2025 01:19:15 81.83,-133.94 108.16 01/10/2025 01:19:48 81.83,-134.05 108.17 1.65 33
8 01/10/2025 02:08:42 -81.83, 33.58 71.86 01/10/2025 02:09:08 -81.82, 33.73 71.83 2.32 26
9 01/10/2025 02:58:08 81.83,-158.70 108.15 01/10/2025 02:58:28 81.83,-158.78 108.15 1.43 20
10 01/10/2025 03:47:35 -81.83, 8.83 71.88 01/10/2025 03:47:48 -81.83, 8.99 71.85 2.61 13
11 01/10/2025 04:37:01 81.83, 176.55 108.13 01/10/2025 04:37:08 81.83, 176.48 108.13 1.26 7
12 01/10/2025 05:26:28 -81.83, -15.93 71.89 01/10/2025 05:26:28 -81.83, -15.74 71.87 2.92 0
13 01/10/2025 06:15:53 81.82, 152.22 108.17 01/10/2025 06:15:47 81.82, 152.16 108.16 0.95 6
14 01/10/2025 07:05:20 -81.82, -40.26 71.85 01/10/2025 07:05:07 -81.82, -40.06 71.84 3.17 13
15 01/10/2025 07:54:46 81.82, 127.47 108.15 01/10/2025 07:54:27 81.82, 127.43 108.14 0.64 19
16 01/10/2025 08:44:13 -81.82, -65.01 71.87 01/10/2025 08:43:48 -81.83, -65.21 71.90 3.35 25
17 01/10/2025 09:33:39 81.82, 102.71 108.14 01/10/2025 09:33:07 81.83, 102.69 108.12 0.41 32
18 01/10/2025 10:23:05 -81.82, -89.34 71.83 01/10/2025 10:22:27 -81.82, -89.53 71.88 3.05 38
19 01/10/2025 11:12:32 81.82, 77.95 108.12 01/10/2025 11:11:47 81.83, 77.95 108.10 0.42 45
20 01/10/2025 12:01:58 -81.82,-114.09 71.85 01/10/2025 12:01:07 -81.82,-114.27 71.90 2.76 51
21 01/10/2025 12:51:24 81.82, 53.63 108.16 01/10/2025 12:50:26 81.82, 53.63 108.13 0.47 58
22 01/10/2025 13:40:51 -81.82,-138.85 71.87 01/10/2025 13:39:47 -81.83,-139.00 71.92 2.49 64



Historial Predications of SNOs between LANDSAT-8 and TERRA
